EW9136 Weather Reports


Display with metric or nautical units.
time (UTC)temp
F
wind
direction
speed
MPH
gust
MPH
rain 1hr
in
rain 24hr
in
rain mn
in
humidity
%
barometer
mb
20260502194603 54 65 2.0 5.0 0.00 0.00 0.00 85 1012.3
20260502193052 54 46 3.0 6.0 0.00 0.00 0.00 85 1012.2
20260502191554 55 50 4.0 8.0 0.00 0.00 0.00 84 1012.1
20260502190050 56 39 5.0 8.0 0.00 0.00 0.00 82 1012.1
20260502184555 56 54 4.0 9.0 0.00 0.00 0.00 82 1012.2
20260502183057 58 46 7.0 10.0 0.00 0.00 0.00 80 1012.2
20260502181547 60 59 5.0 9.0 0.00 0.00 0.00 77 1012.2
20260502163049 65 56 6.0 11.0 0.00 0.00 0.00 68 1012.7
20260502161543 67 287 0.0 6.0 0.00 0.00 0.00 64 1012.6
20260502151538 67 247 7.0 12.0 0.00 0.00 0.00 59 1013.1
20260502123040 66 252 5.0 11.0 0.00 0.00 0.00 64 1014.3
20260502121537 66 308 5.0 11.0 0.00 0.00 0.00 65 1014.3
20260502114530 65 227 6.0 11.0 0.00 0.00 0.00 67 1014.4
20260502113028 64 319 6.0 11.0 0.00 0.00 0.00 69 1014.4
20260502111524 64 229 5.0 12.0 0.00 0.00 0.00 71 1014.7
20260502110021 63 287 8.0 14.0 0.00 0.00 0.00 71 1014.8
20260502104523 63 254 5.0 9.0 0.00 0.00 0.00 73 1014.7
20260502103016 62 284 6.0 15.0 0.00 0.00 0.00 71 1014.8
20260502101532 61 318 6.0 11.0 0.00 0.00 0.00 74 1014.8
20260502091505 58 244 5.0 13.0 0.00 0.00 0.00 78 1015.4
20260502080108 57 231 5.0 12.0 0.00 0.00 0.00 79 1015.1
20260502070058 52 250 5.0 13.0 0.00 0.00 0.00 85 1015.3
20260502064551 52 239 5.0 15.0 0.00 0.00 0.00 85 1015.3
20260502063053 52 242 6.0 12.0 0.00 0.00 0.00 86 1015.3
20260502061544 52 253 4.0 12.0 0.00 0.00 0.00 85 1015.3
20260502060042 52 235 5.0 9.0 0.00 0.00 0.00 85 1015.4
20260502054542 52 227 5.0 8.0 0.00 0.00 0.00 86 1015.4
20260502053037 51 214 3.0 8.0 0.00 0.00 0.00 85 1015.4
20260502051541 52 206 2.0 12.0 0.00 0.00 0.00 85 1015.4
20260502050034 52 248 3.0 10.0 0.00 0.00 0.00 85 1015.3
20260502044531 52 262 3.0 7.0 0.00 0.00 0.00 85 1015.2
20260502043031 52 213 3.0 9.0 0.00 0.00 0.00 84 1015.2
20260502041528 53 263 4.0 10.0 0.00 0.00 0.00 85 1015.3
20260502040029 53 239 3.0 7.0 0.00 0.00 0.00 83 1015.3
20260502034528 53 256 5.0 12.0 0.00 0.00 0.00 83 1015.4
20260502033022 53 241 3.0 9.0 0.00 0.00 0.00 83 1015.4
20260502031521 54 231 3.0 9.0 0.00 0.00 0.00 82 1015.4
20260502030019 54 237 4.0 9.0 0.00 0.00 0.00 83 1015.5
20260502024517 54 254 2.0 10.0 0.00 0.00 0.00 84 1015.5
20260502023016 54 252 3.0 9.0 0.00 0.00 0.00 85 1015.6
20260502021514 55 248 3.0 8.0 0.00 0.00 0.00 86 1015.6
20260502020013 55 252 3.0 7.0 0.00 0.00 0.00 87 1015.7
20260502014512 54 244 2.0 6.0 0.00 0.00 0.00 88 1015.7
20260502013009 53 195 0.0 3.0 0.00 0.00 0.00 89 1015.8
20260502011519 53 181 1.0 2.0 0.00 0.00 0.00 89 1016.0
20260502010012 53 181 0.0 1.0 0.00 0.00 0.00 88 1016.1
20260502004505 53 181 0.0 2.0 0.00 0.00 0.00 88 1016.1
20260502003004 53 181 0.0 1.0 0.00 0.00 0.00 87 1016.2
20260502001502 53 181 0.0 2.0 0.00 0.00 0.00 87 1016.2
20260502000002 54 181 0.0 1.0 0.00 0.00 0.00 86 1016.1
20260501234609 54 181 0.0 3.0 0.00 0.00 0.00 87 1016.2
20260501233104 53 181 0.0 0.0 0.00 0.00 0.00 86 1016.3
20260501231559 53 181 0.0 3.0 0.00 0.00 0.00 85 1016.4
20260501230059 53 181 0.0 4.0 0.00 0.00 0.00 84 1016.4
20260501224558 54 209 0.0 2.0 0.00 0.00 0.00 83 1016.5
20260501223058 55 208 0.0 4.0 0.00 0.00 0.00 82 1016.4
20260501221556 55 205 3.0 5.0 0.00 0.00 0.00 82 1016.3
20260501220136 55 194 3.0 6.0 0.00 0.00 0.00 81 1016.3
20260501214556 55 222 3.0 6.0 0.00 0.00 0.00 80 1016.3
20260501213102 56 167 2.0 5.0 0.00 0.00 0.00 77 1016.2
20260501211555 58 164 2.0 5.0 0.00 0.00 0.00 74 1016.2
20260501210115 58 163 4.0 7.0 0.00 0.00 0.00 73 1016.3
20260501204557 58 228 0.0 9.0 0.00 0.00 0.00 72 1016.5
20260501203056 59 226 4.0 10.0 0.00 0.00 0.00 70 1016.5
20260501201557 60 163 7.0 13.0 0.00 0.00 0.00 68 1016.0
20260501200053 59 121 7.0 12.0 0.00 0.00 0.00 68 1016.1